User: anonymous   Login
Location: Unspecified
(0.0000°N, 0.0000°E)
Time: 00:47:06
(UTC+00:00)
Language:

STARLINK-30352 - Orbit

View from above orbital plane
View from above orbital plane
View from above satellite
View from above satellite

Ground track
Ground track

The orbit is defined by the following mean orbital elements,

1 57736U          26145.34752992 +.00000000 +00000-0 +42814-4 0 00003
2 57736  43.0053 106.9037 0001108 273.8460  86.2265 15.26743340    05
Epoch (UTC): 25 May 2026 08:20:26
Eccentricity: 0.0001108
inclination: 43.0053°
perigee height: 485 km
apogee height: 486 km
right ascension of ascending node: 106.9037°
argument of perigee: 273.8460°
revolutions per day: 15.26743340
mean anomaly at epoch: 86.2265°

The dashed part of the orbit path shows where the satellite is in the earth's shadow,  

DLR